Tracking 19827 objects as of 23-Aug-2019
HD Live streaming from Space Station
objects crossing your sky now

FENGYUN 1C DEB

Track FENGYUN 1C DEB now!
10-day predictions


NORAD ID: 37441
Int'l Code: 1999-025EHK
Perigee: 832.1 km
Apogee: 1,630.7 km
Inclination: 99.2 °
Period: 109.9 minutes
Semi major axis: 7602 km
RCS: 0.0082 m2 (small)
Launch date: May 10, 1999
Source: People's Republic of China (PRC)
Launch site: Taiyaun Space Center, China (TSC)

Note: This is SATELLITE DEBRIS
aabbcc
Your satellite tracking list
Your tracking list is empty




NASA's NSSDC Master Catalog

Two Line Element Set (TLE):
1 37441U 99025EHK 19233.12807963 -.00000061  00000-0 -43240-4 0  9994
2 37441  99.1867 359.1312 0525262 121.8028 243.5350 13.09711338519563
Source of the keplerian elements: AFSPC